Time,TemperatureF,DewpointF,PressureIn,WindDirection,WindDirectionDegrees,WindSpeedMPH,WindSpeedGustMPH,Humidity,HourlyPrecipIn,Conditions,Clouds,dailyrainin,SoftwareType,DateUTC
2013-09-19 00:01:00,63.0,61.0,30.09,North,1,114.0,114.0,93,0.00,,,0.00,,2013-09-19 04:01:00,
2013-09-19 00:25:00,63.0,61.0,30.09,North,1,114.0,114.0,93,0.00,,,0.00,,2013-09-19 04:25:00,
2013-09-19 00:54:00,63.0,61.0,30.10,North,1,114.0,114.0,93,0.00,,,0.00,,2013-09-19 04:54:00,
2013-09-19 01:23:00,63.0,61.0,30.09,North,1,114.0,114.0,93,0.00,,,0.00,,2013-09-19 05:23:00,
2013-09-19 01:34:00,63.0,61.0,30.09,North,1,114.0,114.0,93,0.00,,,0.00,,2013-09-19 05:34:00,
2013-09-19 01:52:00,63.0,61.0,30.09,North,1,114.0,114.0,93,0.00,,,0.00,,2013-09-19 05:52:00,
2013-09-19 02:02:00,63.0,61.0,30.09,North,1,114.0,114.0,93,0.00,,,0.00,,2013-09-19 06:02:00,
2013-09-19 02:22:00,64.0,62.0,30.10,North,1,114.0,114.0,93,0.00,,,0.00,,2013-09-19 06:22:00,
2013-09-19 02:52:00,64.0,62.0,30.09,North,1,114.0,114.0,93,0.00,,,0.00,,2013-09-19 06:52:00,
2013-09-19 03:12:00,64.0,62.0,30.09,North,1,114.0,114.0,93,0.00,,,0.00,,2013-09-19 07:12:00,
2013-09-19 03:22:00,64.0,62.0,30.09,North,1,114.0,114.0,93,0.00,,,0.00,,2013-09-19 07:22:00,
2013-09-19 03:50:00,64.0,62.0,30.08,North,1,114.0,114.0,93,0.00,,,0.00,,2013-09-19 07:50:00,
2013-09-19 03:52:00,64.0,62.0,30.08,North,1,114.0,114.0,93,0.00,,,0.00,,2013-09-19 07:52:00,
2013-09-19 04:12:00,64.0,62.0,30.08,North,1,114.0,114.0,93,0.00,,,0.00,,2013-09-19 08:12:00,
2013-09-19 04:22:00,64.0,62.0,30.08,North,1,114.0,114.0,93,0.00,,,0.00,,2013-09-19 08:22:00,
2013-09-19 04:32:00,64.0,62.0,30.08,North,1,114.0,114.0,93,0.00,,,0.00,,2013-09-19 08:32:00,
2013-09-19 05:22:00,64.0,62.0,30.08,North,1,114.0,114.0,94,0.00,,,0.00,,2013-09-19 09:22:00,
2013-09-19 05:53:00,64.0,62.0,30.08,North,1,114.0,114.0,94,0.00,,,0.00,,2013-09-19 09:53:00,
2013-09-19 06:24:00,64.0,62.0,30.08,North,1,114.0,114.0,94,0.00,,,0.00,,2013-09-19 10:24:00,
2013-09-19 06:52:00,64.0,62.0,30.08,North,1,114.0,114.0,94,0.00,,,0.00,,2013-09-19 10:52:00,
2013-09-19 07:12:00,64.0,63.0,30.08,North,1,114.0,114.0,95,0.02,,,0.02,,2013-09-19 11:12:00,
2013-09-19 07:22:00,64.0,63.0,30.08,North,1,114.0,114.0,95,0.02,,,0.02,,2013-09-19 11:22:00,
2013-09-19 07:52:00,64.0,63.0,30.09,North,1,114.0,114.0,95,0.14,,,0.14,,2013-09-19 11:52:00,
2013-09-19 08:22:00,64.0,63.0,30.09,North,1,114.0,114.0,95,0.12,,,0.14,,2013-09-19 12:22:00,
2013-09-19 08:32:00,64.0,63.0,30.09,North,1,114.0,114.0,95,0.12,,,0.14,,2013-09-19 12:32:00,
2013-09-19 08:52:00,64.0,63.0,30.09,North,1,114.0,114.0,95,0.00,,,0.14,,2013-09-19 12:52:00,
2013-09-19 09:22:00,65.0,64.0,30.09,North,1,114.0,114.0,95,0.00,,,0.14,,2013-09-19 13:22:00,
2013-09-19 09:52:00,65.0,64.0,30.09,North,1,114.0,114.0,95,0.00,,,0.14,,2013-09-19 13:52:00,
2013-09-19 10:12:00,66.0,65.0,30.09,North,1,114.0,114.0,96,0.00,,,0.14,,2013-09-19 14:12:00,
2013-09-19 10:22:00,66.0,65.0,30.09,North,1,114.0,114.0,96,0.00,,,0.14,,2013-09-19 14:22:00,
2013-09-19 10:52:00,67.0,65.0,30.09,North,1,114.0,114.0,94,0.00,,,0.14,,2013-09-19 14:52:00,
2013-09-19 11:02:00,67.0,65.0,30.09,North,1,114.0,114.0,94,0.00,,,0.14,,2013-09-19 15:02:00,
2013-09-19 11:22:00,66.0,64.0,30.09,North,1,114.0,114.0,93,0.00,,,0.14,,2013-09-19 15:22:00,
2013-09-19 11:54:00,66.0,64.0,30.09,North,1,114.0,114.0,93,0.00,,,0.14,,2013-09-19 15:54:00,
2013-09-19 12:04:00,66.0,64.0,30.09,North,1,114.0,114.0,93,0.00,,,0.14,,2013-09-19 16:04:00,
2013-09-19 12:24:00,68.0,66.0,30.08,North,1,114.0,114.0,94,0.00,,,0.14,,2013-09-19 16:24:00,
2013-09-19 12:33:00,68.0,66.0,30.08,North,1,114.0,114.0,94,0.00,,,0.14,,2013-09-19 16:33:00,
2013-09-19 12:53:00,68.0,66.0,30.08,North,1,114.0,114.0,94,0.00,,,0.14,,2013-09-19 16:53:00,
2013-09-19 13:03:00,68.0,66.0,30.08,North,1,114.0,114.0,94,0.00,,,0.14,,2013-09-19 17:03:00,
2013-09-19 13:23:00,68.0,66.0,30.08,North,1,114.0,114.0,93,0.00,,,0.14,,2013-09-19 17:23:00,
2013-09-19 13:53:00,68.0,66.0,30.08,North,1,114.0,114.0,93,0.00,,,0.14,,2013-09-19 17:53:00,
2013-09-19 14:11:00,68.0,66.0,30.06,North,1,114.0,114.0,94,0.00,,,0.14,,2013-09-19 18:11:00,
2013-09-19 14:22:00,68.0,66.0,30.06,North,1,114.0,114.0,93,0.00,,,0.14,,2013-09-19 18:22:00,
2013-09-19 14:32:00,68.0,66.0,30.06,North,1,114.0,114.0,93,0.00,,,0.14,,2013-09-19 18:32:00,
2013-09-19 14:52:00,68.0,66.0,30.06,North,1,114.0,114.0,93,0.00,,,0.14,,2013-09-19 18:52:00,
2013-09-19 15:12:00,72.0,69.0,30.03,North,1,114.0,114.0,90,0.00,,,0.14,,2013-09-19 19:12:00,
2013-09-19 15:22:00,72.0,69.0,30.03,North,1,114.0,114.0,90,0.00,,,0.14,,2013-09-19 19:22:00,
2013-09-19 15:52:00,74.0,69.0,30.03,North,1,114.0,114.0,85,0.00,,,0.14,,2013-09-19 19:52:00,
2013-09-19 16:22:00,73.0,68.0,30.01,North,1,114.0,114.0,84,0.00,,,0.14,,2013-09-19 20:22:00,
2013-09-19 16:42:00,72.0,68.0,30.01,North,1,114.0,114.0,86,0.00,,,0.14,,2013-09-19 20:42:00,
2013-09-19 16:52:00,71.0,67.0,30.01,North,1,114.0,114.0,86,0.00,,,0.14,,2013-09-19 20:52:00,
2013-09-19 17:12:00,70.0,66.0,30.01,North,1,114.0,114.0,88,0.00,,,0.14,,2013-09-19 21:12:00,
2013-09-19 17:22:00,70.0,66.0,30.01,North,1,114.0,114.0,88,0.00,,,0.14,,2013-09-19 21:22:00,
2013-09-19 17:55:00,70.0,67.0,30.01,North,1,114.0,114.0,90,0.00,,,0.14,,2013-09-19 21:55:00,
2013-09-19 18:14:00,70.0,67.0,30.01,North,1,114.0,114.0,90,0.00,,,0.14,,2013-09-19 22:14:00,
2013-09-19 18:24:00,70.0,67.0,30.01,North,1,114.0,114.0,90,0.00,,,0.14,,2013-09-19 22:24:00,
2013-09-19 18:53:00,70.0,67.0,30.01,North,1,114.0,114.0,89,0.00,,,0.14,,2013-09-19 22:53:00,
2013-09-19 19:12:00,69.0,66.0,30.01,North,1,114.0,114.0,90,0.00,,,0.14,,2013-09-19 23:12:00,
2013-09-19 19:22:00,69.0,66.0,30.01,North,1,114.0,114.0,90,0.00,,,0.14,,2013-09-19 23:22:00,
2013-09-19 19:43:00,69.0,66.0,30.01,North,1,114.0,114.0,91,0.00,,,0.14,,2013-09-19 23:43:00,
2013-09-19 19:53:00,69.0,66.0,30.01,North,1,114.0,114.0,91,0.00,,,0.14,,2013-09-19 23:53:00,
2013-09-19 20:02:00,69.0,66.0,30.01,North,1,114.0,114.0,91,0.00,,,0.14,,2013-09-20 00:02:00,
2013-09-19 20:22:00,68.0,66.0,30.00,North,1,114.0,114.0,92,0.00,,,0.14,,2013-09-20 00:22:00,
2013-09-19 20:52:00,68.0,65.0,29.98,North,1,114.0,114.0,91,0.00,,,0.14,,2013-09-20 00:52:00,
2013-09-19 21:22:00,67.0,65.0,29.98,North,1,114.0,114.0,93,0.00,,,0.14,,2013-09-20 01:22:00,
2013-09-19 21:32:00,67.0,65.0,29.98,North,1,114.0,114.0,93,0.00,,,0.14,,2013-09-20 01:32:00,
2013-09-19 21:52:00,67.0,65.0,29.98,North,1,114.0,114.0,93,0.00,,,0.14,,2013-09-20 01:52:00,
2013-09-19 22:12:00,67.0,65.0,29.98,North,1,114.0,114.0,94,0.00,,,0.14,,2013-09-20 02:12:00,
2013-09-19 22:22:00,67.0,65.0,29.98,North,1,114.0,114.0,94,0.00,,,0.14,,2013-09-20 02:22:00,
2013-09-19 22:52:00,66.0,64.0,30.00,North,1,114.0,114.0,93,0.00,,,0.14,,2013-09-20 02:52:00,
2013-09-19 23:23:00,65.0,63.0,30.01,North,1,114.0,114.0,93,0.00,,,0.14,,2013-09-20 03:23:00,
2013-09-19 23:55:00,65.0,63.0,30.01,North,1,114.0,114.0,94,0.00,,,0.14,,2013-09-20 03:55:00,